Tracking 19709 objects as of 18-Jun-2019
HD Live streaming from Space Station
objects crossing your sky now

COSMOS 1823 DEB

Track COSMOS 1823 DEB now!
10-day predictions


NORAD ID: 18802
Int'l Code: 1987-020AN
Perigee: 1,473.2 km
Apogee: 1,637.9 km
Inclination: 73.6 °
Period: 117.1 minutes
Semi major axis: 7926 km
RCS: 0.0581 m2 (small)
Launch date: February 20, 1987
Source: Commonwealth of Independent States (former USSR) (CIS)
Launch site: PLESETSK MISSILE AND SPACE COMPLEX (PKMTR)

Note: This is SATELLITE DEBRIS
aabbcc
Your satellite tracking list
Your tracking list is empty




NASA's NSSDC Master Catalog

Two Line Element Set (TLE):
1 18802U 87020AN  19167.22631603  .00000020  00000-0  30669-3 0  9992
2 18802  73.5896 219.8583 0103918 337.8873  79.1835 12.30200533412588
Source of the keplerian elements: AFSPC